Location: Eschertshofen
(49.3064°N, 11.5756°E)
Time: 17:56:53
(UTC+00:00)

Iridium 26 - Pass Details

Date: 27 September 2021
Orbit: 772 x 775 km, 86.4° (Epoch: 22 October)

Event Time Altitude Azimuth Distance (km) Brightness Sun altitude
Exits shadow 21:28:24 23° 318° (NW) 1,608 7.6 -38.4°
Drops below altitude 10° 21:31:05 10° 344° (NNW) 2,334 8.7 -38.6°
Sets 21:33:47 0° 356° (N) 3,265 9.5 -38.9°
